Location: *
(60.1759°S, 155.0663°W)
Time: 01:28:31
(UTC+00:00)

Cosmos 909 Rocket - Pass Details

Date: 17 September 2019
Orbit: 979 x 2100 km, 65.9° (Epoch: 19 October)

Event Time Altitude Azimuth Distance (km) Brightness Sun altitude
Exits shadow 14:28:30 19° 274° (W) 2,302 5.4 -14.8°
Maximum altitude 14:33:20 60° 199° (SSW) 1,148 4.4 -14.3°
Drops below altitude 10° 14:39:35 10° 118° (ESE) 2,774 7.8 -13.5°
Sets 14:42:12 0° 113° (ESE) 3,755 9.1 -13.2°
